Regional Weather Roundup
Issued by NWS

Home | Current Version | Previous Version | Graphics & Text | Print | Product List | Glossary On
Versions: 1 2 3 4 5 6 7 8 9 10 11 12 13 14 15 16 17 18 19 20 21 22 23 24 25 26 27 28 29 30 31 32 33 34 35 36 37 38 39 40 41 42 43 44 45 46 47 48 49 50
000
ASUS43 KMPX 231301
RWRMN
WEATHER ROUNDUP FOR MINNESOTA
NATIONAL WEATHER SERVICE TWIN CITIES/CHANHASSEN MN
800 AM CDT THU OCT 23 2014


NOTE: "FAIR" INDICATES FEW OR NO CLOUDS BELOW 12,000 FEET WITH NO
SIGNIFICANT WEATHER AND/OR OBSTRUCTIONS TO VISIBILITY. N/A MEANS
CURRENT SKY AND/OR WEATHER CONDITIONS ARE NOT AVAILABLE.

MNZ060>063-068>070-231400-
   Twin Cities Metro

CITY           SKY/WX    TMP DP  RH WIND       PRES   REMARKS
TWIN CITIES    CLOUDY    53  50  89 S7        29.99S
ST PAUL        CLOUDY    51  49  92 SE3       30.00S
CRYSTAL        CLOUDY    54  51  90 S6        29.97S
BLAINE         CLOUDY    54  54 100 S6          N/A
LAKEVILLE      CLOUDY    50  48  93 SW3       30.00R
EDEN PRAIRIE   CLOUDY    53  51  93 S7        29.98S
SOUTH ST PAUL  CLOUDY    52  49  90 S5        29.99S
LAKE ELMO      CLOUDY    50  50 100 S6        30.00S
$$
MNZ001>005-007-008-013>017-022>024-027-028-231400-
   Northwest Minnesota

CITY           SKY/WX    TMP DP  RH WIND       PRES   REMARKS
BEMIDJI        CLOUDY    47  47  98 S7        29.90S FOG
HALLOCK        CLEAR     43  39  87 SE9       29.82S
ROSEAU         CLOUDY    48  43  81 S10       29.83S
WARROAD        CLOUDY    48  45  87 S5        29.84S
THIEF RVR FALL CLEAR     45  43  93 S9        29.87R
CROOKSTON      CLEAR     43  39  87 S9        29.88R
FOSSTON        CLOUDY    46  45  93 S9        29.90R
DETROIT LAKES  FOG       45  43  93 SE6       29.93S VSB 1/4
MOORHEAD       CLEAR     43  43 100 S9        29.92S
PARK RAPIDS    CLOUDY    49  48  97 S8        29.93S
MAHNOMEN       FAIR      45  44  96 S9        29.90S
$$
MNZ006-009>011-018-025>026-231400-
   North Central Minnesota

CITY           SKY/WX    TMP DP  RH WIND       PRES   REMARKS
BAUDETTE       MOCLDY    47  45  93 SW8       29.85S
FLAG ISLAND    CLOUDY    48  46  93 S8        29.81R
INTL FALLS     CLOUDY    49  48  97 S6        29.89R
WASKISH        CLOUDY    48  48 100 CALM      29.88S
BIG FORK       CLOUDY    50  48  93 SW10      29.92S
LONGVILLE      CLOUDY    52  50  93 S6        29.93R
GRAND RAPIDS   CLOUDY    50  46  87 S5        29.93S
CRANE LAKE     CLOUDY    46  45  93 CALM      29.92R
ORR            CLOUDY    46  45  93 CALM      29.90R FOG
COOK           CLOUDY    48  46  93 SW7       29.93R
WALKER         CLOUDY    49  48  97 SW6       29.91S
$$
MNZ012-019>021-037-231400-
   Northeast Minnesota

CITY           SKY/WX    TMP DP  RH WIND       PRES   REMARKS
DULUTH         CLOUDY    48  44  86 S8        29.95S FOG
HIBBING        FOG       48  45  89 S5        29.93F VSB 3/4
EVELETH        CLOUDY    45  45 100 S5        29.95S
DULUTH HARBOR  CLOUDY    48  46  93 CALM      29.97S
TWO HARBORS    LGT RAIN  48  37  66 CALM      29.95S
SILVER BAY     RAIN      46  45  93 CALM      29.95F
GRAND MARAIS     N/A     48  43  82 CALM      30.00R
G MARAIS ARPRT CLOUDY    43  37  81 SE6       29.98F
$$
MNZ029>031-032-039>041-046>048-054>057-064-231400-
   West Central Minnesota

CITY           SKY/WX    TMP DP  RH WIND       PRES   REMARKS
FERGUS FALLS   CLEAR     41  39  93 S5        29.95S FOG
WHEATON        CLEAR     39  37  93 S5        29.96S
MORRIS         FOG       37  37 100 SE5       29.95S VSB<1/4
ALEXANDRIA     PTCLDY    44  43  96 SW7       29.96F
ELBOW LAKE       N/A     40  40 100 SE6       29.95S FOG
WADENA         FOG       45  45 100 CALM      29.94S VSB<1/4
GLENWOOD       FOG       43  43 100 CALM      29.97S VSB 1/4
APPLETON       CLEAR     43  39  87 CALM      29.96S FOG
BENSON         MIX PCPN  41  39  93 S3        29.97S VSB 1/4
ORTONVILLE     CLEAR     45  41  87 W6        29.95F
MADISON        CLEAR     46  45  93 CALM      29.96S
WILLMAR        FOG       46  45  93 CALM      29.99S VSB 1/4
$$
MNZ033>034-036-042>043-049>051-058-059-231400-
   Central Minnesota

CITY           SKY/WX    TMP DP  RH WIND       PRES   REMARKS
ST CLOUD       CLOUDY    55  52  89 SW6       29.97R FOG
SAUK CENTRE    FOG       46  46 100 SW3       29.97S VSB<1/4
PAYNESVILLE    FOG       46  47 100 S3        29.97S VSB 1/4
AITKIN         HAZE      54  46  76 SW3       29.94R VSB 1
PINE RIVER     CLOUDY    52  52 100 CALM      29.97S
BRAINERD       CLOUDY    50  50 100 SW7       29.96R
STAPLES        CLOUDY    48  48 100 CALM      29.95S
LONG PRAIRIE   FOG       46  46 100 S3        29.96S VSB 1/4
LITTLE FALLS   FOG       50  48  93 SW6       29.96S VSB 1
LITCHFIELD     FOG       48  48 100 SW3       29.98S VSB 1/4
BUFFALO        CLOUDY    53  51  92 S3        29.99R
MAPLE LAKE     FOG       53  53  97 SW3       29.98S VSB 3/4
$$
MNZ037-044-045-052-053-231400-
   East Central Minnesota

CITY           SKY/WX    TMP DP  RH WIND       PRES   REMARKS
PRINCETON      CLOUDY    54  54 100 CALM      29.97S FOG
MORA           FOG       48  46  93 CALM      29.98S VSB 3/4
CAMBRIDGE      HAZE      54  46  76 CALM      29.96S VSB 3/4
RUSH CITY      CLOUDY    49  48  96 CALM      29.99R FOG
MOOSE LAKE     CLOUDY    46  46 100 S5        29.95S FOG
HINCKLEY       FOG       50  50 100 CALM      29.97S VSB 1/4
CLOQUET        CLOUDY    48  46  93 S5        29.96S FOG
MCGREGOR       CLOUDY    50  48  93 CALM      29.96R VSB 1/2
$$
MNZ071>073-080-081-089-090-097-098-231400-
   Southwest Minnesota

CITY           SKY/WX    TMP DP  RH WIND       PRES   REMARKS
MONTEVIDEO       N/A     43  43 100 SW3       29.98S FOG
GRANITE FALLS  FOG       40  40 100 SE5       30.00R VSB 1/4
CANBY          CLEAR     48  44  85 SW12      29.98S
MARSHALL       CLEAR     48  43  81 SW13      29.96F
REDWOOD FALLS  PTCLDY    46  45  96 SW8       29.98S FOG
OLIVIA         FOG       43  41  93 SW3       29.98S VSB<1/4
PIPESTONE      FOG       46  46 100 CALM      30.01R VSB<1/4
WINDOM         FOG       48  48 100 SW7       30.01R VSB 1/4
WORTHINGTON    CLOUDY    48  46  93 SW3       30.02S VSB<1/4
JACKSON        FOG       50  48  93 W3        30.02R VSB 1/2
TRACY          CLEAR     48  47  96 SW8       29.99S
SLAYTON        FOG       45  45 100 CALM      30.01S VSB 1/4
$$
MNZ065>067-074>077-082>085-091>093-231400-
   South Central Minnesota

CITY           SKY/WX    TMP DP  RH WIND       PRES   REMARKS
MANKATO        CLOUDY    52  46  82 S6        30.00S
NEW ULM        FOG       46  46 100 SW5       29.99S VSB<1/4
ST JAMES       FOG       48  46  93 SW3       30.01S VSB 1/4
FAIRMONT       CLOUDY    54  48  82 W7        30.01R VSB 3/4
GLENCOE        FOG       53  53 100 S5        29.98R VSB 1/4
FARIBAULT      CLOUDY    50  48  93 S5        30.01R FOG
OWATONNA       CLOUDY    50  46  87 S5        30.01S FOG
WASECA         CLOUDY    50  46  87 S3        30.02R FOG
ALBERT LEA     CLOUDY    48  48 100 S5        30.01R FOG
$$
MNZ078>079-086>088-094>096-231400-
   Southeast Minnesota

CITY           SKY/WX    TMP DP  RH WIND       PRES   REMARKS
ROCHESTER      LGT RAIN  48  46  93 S9        30.02F FOG
STANTON        CLOUDY    51  48  90 S6        29.99S
DODGE CENTER   LGT RAIN  48  46  93 S9        30.01S
WINONA         CLOUDY    48  46  93 SE3       30.04F
AUSTIN         CLOUDY    48  46  93 S8        30.01S
PRESTON        LGT RAIN  46  45  95 S9        30.03F
$$
ABBREVIATIONS USED IN REMARKS
   TC - TEMPERATURES IN CELSIUS
  WCI - WIND CHILL INDEX
   HX - HEAT INDEX
  VSB - VISIBILITY
$$



USA.gov is the U.S. government's official web portal to all federal, state and local government web resources and services.